Location: Namasale
(1.5000°N, 32.6167°E)
Time: 16:51:30
(UTC+00:00)

Vanguard 1 Rocket - Pass Details

Date: 27 April 2021
Orbit: 651 x 4225 km, 34.3° (Epoch: 17 May)

Event Time Altitude Azimuth Distance (km) Brightness Sun altitude
Rises 21:28:16 0° 241° (WSW) 5,482 - -73.7°
Reaches altitude 10° 21:33:39 10° 221° (SW) 5,131 - -74.0°
Maximum altitude 21:43:03 17° 185° (S) 5,488 - -74.3°
Drops below altitude 10° 21:55:42 10° 150° (SSE) 7,011 - -74.2°
Exits shadow 21:59:58 - 142° (SE) 7,597 11.9 -74.0°
Sets 22:06:01 0° 132° (SE) 8,417 12.2 -73.7°
